TimePDT,TemperatureF,Dew PointF,Humidity,Sea Level PressureIn,VisibilityMPH,Wind Direction,Wind SpeedMPH,Gust SpeedMPH,PrecipitationIn,Events,Conditions,WindDirDegrees,DateUTC
12:53 AM,70.0,54.0,57,30.14,-9999.0,WNW,12.7,-,N/A,,Clear,300,2012-10-13 07:53:00
1:53 AM,70.0,54.0,57,30.14,-9999.0,WNW,10.4,-,N/A,,Clear,300,2012-10-13 08:53:00
2:53 AM,69.1,54.0,58,30.14,-9999.0,WNW,12.7,-,N/A,,Clear,290,2012-10-13 09:53:00
3:53 AM,70.0,54.0,57,30.14,-9999.0,WNW,11.5,-,N/A,,Clear,300,2012-10-13 10:53:00
4:53 AM,69.1,54.0,58,30.14,-9999.0,WNW,10.4,-,N/A,,Partly Cloudy,300,2012-10-13 11:53:00
5:53 AM,70.0,54.0,57,30.14,-9999.0,WNW,11.5,-,N/A,,Scattered Clouds,300,2012-10-13 12:53:00
6:53 AM,70.0,54.0,57,30.15,-9999.0,WNW,11.5,-,N/A,,Partly Cloudy,290,2012-10-13 13:53:00
7:42 AM,71.6,55.4,57,30.18,-9999.0,WNW,11.5,-,N/A,,Mostly Cloudy,290,2012-10-13 14:42:00
7:53 AM,72.0,55.9,57,30.17,-9999.0,WNW,16.1,-,N/A,,Mostly Cloudy,300,2012-10-13 14:53:00
8:30 AM,73.4,55.4,53,30.19,-9999.0,NW,13.8,-,N/A,,Mostly Cloudy,310,2012-10-13 15:30:00
8:53 AM,73.0,55.9,55,30.18,-9999.0,WNW,12.7,-,N/A,,Scattered Clouds,300,2012-10-13 15:53:00
9:04 AM,73.4,55.4,53,30.20,-9999.0,WNW,11.5,-,N/A,,Mostly Cloudy,300,2012-10-13 16:04:00
9:11 AM,75.2,55.4,50,30.20,-9999.0,NW,13.8,-,N/A,,Scattered Clouds,310,2012-10-13 16:11:00
9:53 AM,75.0,57.0,53,30.18,-9999.0,NW,10.4,-,N/A,,Partly Cloudy,310,2012-10-13 16:53:00
10:53 AM,78.1,57.0,48,30.17,-9999.0,NW,10.4,-,N/A,,Clear,320,2012-10-13 17:53:00
11:53 AM,75.0,57.0,53,30.16,-9999.0,NNW,8.1,-,N/A,,Clear,330,2012-10-13 18:53:00
12:53 PM,77.0,57.0,50,30.14,-9999.0,NNW,6.9,-,N/A,,Clear,340,2012-10-13 19:53:00
1:53 PM,77.0,55.9,48,30.11,-9999.0,Calm,Calm,-,N/A,,Clear,0,2012-10-13 20:53:00
2:53 PM,69.1,57.9,68,30.08,-9999.0,NNE,6.9,-,N/A,,Clear,30,2012-10-13 21:53:00
3:53 PM,82.9,55.9,39,30.06,-9999.0,NW,5.8,-,N/A,,Clear,310,2012-10-13 22:53:00
4:53 PM,80.1,55.9,43,30.05,-9999.0,WNW,9.2,-,N/A,,Clear,300,2012-10-13 23:53:00
5:53 PM,75.9,55.0,48,30.04,-9999.0,WNW,10.4,-,N/A,,Clear,290,2012-10-14 00:53:00
6:53 PM,72.0,55.0,55,30.05,-9999.0,WNW,8.1,-,N/A,,Clear,290,2012-10-14 01:53:00
7:53 PM,73.0,55.9,55,30.06,-9999.0,West,10.4,-,N/A,,Clear,280,2012-10-14 02:53:00
8:53 PM,72.0,57.0,59,30.06,-9999.0,West,9.2,-,N/A,,Clear,280,2012-10-14 03:53:00
9:53 PM,72.0,57.0,59,30.06,-9999.0,West,11.5,-,N/A,,Clear,280,2012-10-14 04:53:00
10:53 PM,66.9,55.0,66,30.06,-9999.0,West,9.2,-,N/A,,Clear,280,2012-10-14 05:53:00
11:53 PM,73.0,54.0,51,30.05,-9999.0,West,5.8,-,N/A,,Clear,280,2012-10-14 06:53:00